Theta_e
342 344 341 338 337 339 341 343 342 343 342 343 346 345 346 344 341 341 339 331 334 338 338 336 336 335 334 333 333 334 333 334 335 336 338 338 339 339 340 340 341 341 340
341 340 337 337 337 340 342 343 342 343 342 345 344 344 344 344 337 339 343 343 333 332 333 334 336 335 332 332 333 334 336 337 338 339 339 340 340 341 342 342 343 343 343
338 339 340 340 340 341 343 344 343 341 345 345 344 344 345 345 343 341 344 344 343 338 336 335 334 333 333 334 335 336 337 338 339 340 342 343 343 344 345 346 347 347 347
340 340 343 343 342 343 343 344 346 345 345 346 345 345 346 345 344 343 344 343 344 344 344 341 341 340 338 336 337 338 340 341 343 344 344 345 346 346 346 345 346 346 346
344 342 343 343 343 343 344 348 346 347 349 347 346 346 347 346 346 345 346 343 343 343 345 345 344 344 344 344 344 345 345 346 347 347 347 346 347 349 348 347 349 350 349
345 344 343 344 345 344 347 348 345 345 347 346 346 347 348 348 345 346 346 346 345 343 345 344 344 346 342 343 343 344 345 346 346 347 347 347 348 349 350 350 348 352 352
345 344 346 347 345 348 345 345 347 348 347 346 350 349 347 345 346 347 346 346 346 346 345 345 344 347 347 344 344 345 345 345 347 347 347 348 349 349 349 350 350 353 351
346 345 345 347 346 348 344 346 345 347 348 346 350 349 348 344 346 344 344 345 346 346 346 345 343 343 343 344 344 345 345 345 347 347 347 347 349 350 351 351 351 348 354
345 345 345 344 346 348 349 345 346 345 350 349 348 350 350 349 350 343 344 344 342 346 345 343 342 341 341 342 343 344 345 347 346 345 346 347 349 350 351 351 350 347 349
347 344 345 344 345 345 344 347 347 348 350 352 351 349 350 351 352 346 344 343 342 343 341 342 343 343 342 346 344 345 347 345 343 345 348 349 349 349 350 351 349 347 346
347 348 346 346 346 345 345 344 346 347 350 352 352 352 351 351 351 350 348 347 345 346 348 345 342 344 346 347 347 348 344 344 345 345 347 346 345 344 344 346 349 347 345
346 348 348 347 347 347 344 346 347 346 347 347 351 351 351 350 351 349 348 350 349 348 350 351 351 351 351 350 348 345 346 346 347 346 344 344 345 344 343 345 346 346 345
351 347 347 347 345 346 346 345 346 345 347 351 345 349 350 350 351 351 350 348 347 347 349 350 351 351 349 351 350 346 348 349 349 348 345 344 341 337 339 342 342 343 343
349 347 347 346 347 349 345 346 350 352 346 349 347 344 350 351 350 350 351 350 349 349 348 350 349 349 349 350 349 348 350 345 340 337 336 335 335 335 340 343 344 344 346
349 349 349 349 348 349 349 345 351 348 350 349 350 347 349 351 351 353 350 349 350 350 349 349 347 349 349 348 348 346 351 348 349 341 337 335 336 338 340 342 344 345 347
349 349 348 348 348 349 349 347 349 347 348 352 352 348 350 351 352 352 352 351 349 348 348 348 347 349 347 346 345 348 351 350 351 339 340 338 337 343 342 339 339 341 344
347 348 348 348 348 348 349 350 350 348 349 354 351 351 352 351 351 351 353 353 352 351 348 346 350 349 349 353 351 349 350 349 346 345 344 343 342 343 341 338 341 339 344
346 348 348 348 348 351 351 350 353 353 350 352 352 353 353 352 352 351 351 353 351 352 351 351 352 352 354 355 353 353 352 352 353 347 344 341 341 342 342 340 342 341 343
347 346 348 346 347 347 349 349 348 350 348 347 351 347 351 352 349 352 351 353 350 353 353 353 354 354 355 355 355 354 355 356 352 347 345 342 340 338 340 339 343 342 342
348 346 347 347 348 348 347 347 348 348 348 350 348 348 348 351 349 351 352 352 350 350 352 354 353 353 353 354 354 353 352 352 351 349 346 347 348 349 349 343 343 342 340
347 347 346 346 348 349 348 349 349 351 350 353 351 348 348 350 349 350 351 350 352 352 350 350 351 352 352 351 352 352 352 351 348 348 350 349 349 350 348 347 346 344 345
342 346 348 349 349 351 349 349 350 354 353 355 356 354 351 350 350 349 350 350 350 351 354 351 351 353 355 355 352 352 352 352 351 348 352 351 351 351 350 349 347 345 345
339 340 342 346 345 345 345 348 348 351 352 353 353 354 351 353 352 353 351 350 351 351 350 352 355 356 355 355 355 354 353 354 353 352 351 352 351 352 351 350 348 345 345
335 339 342 343 338 336 342 345 345 348 349 349 350 349 350 350 347 347 348 352 353 354 355 354 353 354 354 355 355 354 355 353 353 353 353 355 352 352 353 352 351 347 346
332 339 340 334 330 328 328 336 336 336 336 336 339 339 340 338 336 340 343 344 346 351 352 350 349 350 350 350 350 349 352 352 354 352 352 354 353 353 353 352 352 349 347
332 334 330 320 318 322 324 323 324 327 328 328 328 329 323 322 322 324 332 332 334 340 340 342 346 349 350 351 349 349 351 352 353 353 353 354 353 353 353 351 353 353 353
Wind_Speed
9 10 9 8 8 7 5 5 4 5 4 3 3 3 3 4 3 4 3 3 3 3 4 5 5 6 7 7 7 7 8 8 9 10 11 12 13 14 14 14 14 14 14
9 8 5 7 8 7 6 6 6 8 10 8 5 4 4 3 4 4 3 4 6 5 4 4 5 6 6 6 6 7 8 10 11 12 13 14 15 15 15 15 16 16 16
5 6 7 8 9 7 6 7 7 8 6 6 6 3 1 2 2 3 3 3 4 7 7 7 6 6 6 6 6 8 9 11 12 14 15 16 16 16 17 17 16 16 16
5 5 6 7 8 7 6 7 6 5 4 4 2 2 2 2 3 3 3 3 4 3 5 7 6 6 7 7 8 10 11 13 14 15 16 16 16 16 16 17 17 16 16
5 7 7 6 6 6 7 5 7 5 4 5 4 3 3 3 3 2 2 3 3 4 3 4 6 6 7 8 9 11 14 15 17 17 17 16 16 16 16 16 18 17 16
4 5 6 6 5 7 6 5 6 5 5 6 6 3 3 2 2 3 3 2 2 3 3 5 6 5 6 8 10 12 14 16 17 18 18 17 16 16 16 16 17 17 15
4 6 4 5 7 6 7 7 5 5 5 7 4 2 2 2 2 4 4 4 3 2 3 5 6 6 6 8 10 12 14 16 18 18 18 18 18 17 16 16 15 17 16
5 5 4 3 6 6 7 6 6 4 4 6 4 2 3 2 4 2 3 3 3 3 3 5 7 8 8 8 10 12 15 17 18 19 19 18 16 16 16 15 13 14 16
6 7 4 3 4 5 4 4 5 5 5 4 7 3 1 3 5 3 3 4 4 3 4 6 7 8 9 10 11 12 14 15 18 19 20 17 16 16 16 16 13 11 14
4 7 7 4 5 4 4 3 4 5 5 6 3 5 5 3 2 1 2 3 4 5 6 5 5 6 9 9 9 10 11 16 19 17 18 18 17 17 18 16 14 10 14
5 6 6 6 6 5 3 3 4 5 6 6 7 2 3 3 4 3 2 5 4 7 7 6 5 6 9 9 8 10 15 18 16 16 17 17 17 19 20 17 14 11 14
6 7 6 7 7 6 5 4 5 4 4 5 5 6 6 4 6 4 3 2 4 5 7 7 6 7 7 8 9 13 17 18 16 13 11 15 18 20 20 18 14 13 14
8 8 7 7 8 6 6 7 5 4 3 2 3 2 3 3 3 3 4 3 2 3 2 5 7 7 7 8 11 16 16 15 12 11 14 16 19 21 21 19 17 16 15
8 10 7 6 7 5 6 7 6 5 4 2 1 1 1 2 2 3 3 4 1 1 1 2 2 6 8 9 12 13 12 16 15 15 17 19 19 21 21 20 18 16 14
7 8 8 8 7 7 7 8 7 6 5 4 4 3 3 3 3 3 3 3 4 4 3 2 4 6 9 11 13 15 13 15 15 18 19 19 17 19 20 19 18 18 15
9 8 9 9 11 10 9 8 7 6 7 5 4 6 5 4 5 6 5 5 5 5 5 5 8 10 13 14 15 16 14 16 16 17 19 17 13 19 23 20 16 17 17
6 8 9 11 13 13 11 10 9 9 9 7 7 7 7 7 7 6 6 7 7 7 11 12 10 11 13 12 15 14 13 13 15 17 18 15 14 20 23 22 17 14 17
6 6 7 7 10 12 13 9 8 8 9 8 7 7 6 6 8 8 8 8 9 8 9 12 12 13 13 13 14 14 13 14 15 16 17 18 17 21 22 23 19 12 13
8 7 6 7 4 8 8 9 9 8 9 9 8 9 7 6 8 7 6 7 8 7 8 10 14 13 14 14 14 15 15 14 14 18 18 19 22 21 22 19 18 12 11
8 8 6 5 5 6 5 7 6 8 9 10 10 9 8 8 10 9 8 9 11 12 11 12 13 14 14 14 12 14 17 15 18 19 17 18 23 24 23 19 14 14 11
3 5 6 7 6 7 5 6 8 8 8 9 9 11 10 10 13 10 11 11 10 12 13 15 15 15 15 14 14 15 17 19 19 16 17 22 21 20 17 14 13 16 13
8 4 4 3 3 3 9 12 12 10 9 9 9 9 10 12 11 11 12 12 13 15 14 14 16 17 17 15 15 16 18 19 19 18 22 23 20 18 14 11 15 13 12
7 6 6 8 7 1 3 6 10 10 9 7 7 9 10 8 10 10 12 16 16 17 17 15 15 17 17 17 17 19 19 19 20 24 20 22 18 16 14 13 17 10 10
7 8 8 12 12 13 6 2 1 1 2 2 3 4 5 2 8 12 14 13 14 14 14 14 15 17 16 15 15 17 18 19 20 19 15 15 16 19 16 17 17 10 10
8 11 14 14 16 15 12 11 10 9 9 9 7 7 6 9 13 13 13 13 14 13 14 16 17 18 21 21 19 17 19 20 21 20 18 19 16 19 19 18 12 12 10
16 21 19 18 18 19 14 13 12 10 10 8 8 8 11 12 12 13 12 13 13 13 15 18 17 17 16 17 19 17 18 20 21 19 11 12 18 19 15 15 12 15 17
Wind_Direction
119 117 105 85 110 116 93 79 39 32 37 87 89 67 63 50 59 47 40 16 27 26 16 11 2 4 7 6 2 2 3 1 359 355 349 347 344 339 332 325 318 312 307
120 120 96 102 113 108 93 73 63 66 77 78 89 80 55 51 40 42 33 20 31 31 24 18 12 12 15 8 9 6 3 0 356 352 349 344 340 335 328 322 317 311 304
106 114 105 115 116 106 97 80 69 82 78 67 70 73 50 18 18 17 19 28 17 31 38 32 27 26 20 18 15 13 6 358 354 353 351 349 346 342 339 334 326 313 303
120 122 122 119 112 111 99 87 71 78 47 47 54 21 292 302 331 353 24 31 22 20 14 22 23 22 19 18 12 5 358 353 352 350 345 345 347 345 343 340 330 318 311
117 119 120 113 107 115 108 91 82 71 29 15 357 332 308 281 299 305 318 19 14 17 3 3 10 8 5 2 355 352 351 353 352 351 345 341 339 343 343 342 339 331 326
140 138 125 110 115 121 105 86 80 57 32 359 341 344 337 301 307 298 311 329 346 13 2 1 357 343 357 355 355 355 353 354 355 353 351 344 338 336 340 344 343 340 338
130 144 134 112 129 127 111 88 70 54 41 11 355 28 12 20 331 295 289 289 306 335 352 343 348 342 344 359 2 0 356 355 356 352 348 345 340 338 334 331 338 341 345
197 186 158 135 123 125 115 83 59 51 40 25 15 13 43 89 16 347 315 312 310 313 325 343 351 352 350 350 354 357 354 352 350 349 347 348 343 342 338 328 327 336 340
187 179 167 176 139 127 111 84 64 74 54 55 43 26 108 45 341 345 1 9 2 352 348 346 354 1 355 345 342 350 356 347 346 345 345 346 342 339 339 335 322 325 335
193 177 179 182 182 156 155 142 90 76 67 63 68 51 75 60 8 2 25 16 18 21 359 348 353 5 8 355 352 3 352 342 343 347 348 344 338 335 333 332 329 321 330
200 188 183 182 185 171 180 173 148 99 80 71 69 91 72 65 54 29 34 22 61 32 17 15 18 16 21 32 25 1 342 342 343 346 350 2 6 0 358 346 336 329 330
204 215 203 206 196 207 207 188 168 140 108 89 75 69 59 49 49 46 39 28 11 25 45 43 48 58 51 25 5 349 341 332 335 341 354 357 353 351 354 353 345 339 335
193 200 212 202 214 205 214 206 197 188 158 144 82 56 53 42 37 39 31 43 7 23 15 52 59 38 18 11 358 356 348 347 350 355 354 350 346 346 351 350 343 336 336
204 206 200 210 197 218 216 209 206 206 219 208 245 320 331 356 359 1 16 2 8 9 304 4 339 7 354 347 352 355 2 9 5 359 351 348 348 349 356 355 346 341 338
224 213 216 223 226 231 229 216 218 221 221 234 256 270 283 291 286 305 323 325 334 318 314 289 323 327 337 335 329 333 325 328 334 345 345 347 352 356 358 354 351 351 342
220 223 214 221 220 220 219 224 232 242 223 227 235 248 250 266 283 276 287 292 290 296 296 299 304 309 321 327 322 323 318 325 323 338 342 345 348 352 351 344 336 340 347
225 250 248 242 227 220 219 224 233 236 238 231 235 236 242 254 259 266 272 275 283 293 290 302 305 317 329 333 338 339 334 331 327 335 345 350 347 349 351 351 334 331 343
250 272 248 237 240 221 223 227 225 229 241 240 240 234 245 251 255 254 255 264 276 283 288 302 314 317 312 320 328 335 335 337 333 334 347 348 343 345 348 346 339 327 342
239 249 263 253 253 239 225 236 232 245 259 255 240 244 238 249 260 259 262 269 261 267 271 281 299 304 309 319 324 328 327 327 333 331 332 336 335 339 345 346 348 336 340
225 232 228 252 245 229 254 263 266 266 255 258 264 257 260 264 261 255 267 271 279 280 280 278 285 295 300 310 316 319 326 329 326 327 326 333 335 338 343 343 356 353 337
200 226 217 228 251 250 268 265 268 272 266 268 264 274 272 263 269 274 270 274 270 276 280 284 288 294 299 311 318 318 315 322 323 323 322 330 327 329 335 340 346 347 349
93 108 140 160 162 197 255 259 262 261 260 265 275 282 280 283 293 287 287 288 280 270 269 280 292 291 296 303 309 311 314 318 316 320 320 318 325 324 328 334 336 340 8
105 87 88 91 90 118 333 270 263 257 258 271 285 293 292 302 310 298 282 280 283 281 279 277 272 279 293 298 302 301 304 302 299 303 308 307 317 316 321 321 331 325 323
101 99 91 97 94 72 62 83 110 104 75 23 19 354 359 13 313 313 311 300 290 286 286 280 276 280 281 285 287 292 294 294 294 297 295 290 311 306 309 306 311 307 306
100 92 107 99 97 80 73 75 68 67 73 68 58 43 31 10 357 345 344 331 319 306 297 305 289 281 284 286 288 290 289 295 295 296 295 284 298 307 307 298 292 291 277
118 119 103 91 84 88 72 66 63 46 44 45 52 45 28 21 10 357 345 338 324 320 313 309 308 305 301 296 296 285 279 281 289 297 302 283 298 307 302 292 288 293 295